This is the latest recevied weather packets stored in our database for station/object KC0UFP. If no packets are shown the sender has not sent any weather packets the latest 1 day(s).
| Time | Temp. | Humidity | Pressure | Rain* | Wind** | Luminosity | Snow |
|---|---|---|---|---|---|---|---|
| 1778035804 | 11.11° C | 99% | 1008 hPa | 0.51 mm | - | 0 W/m² | - |
| 1778035501 | 11.11° C | 99% | 1008.2 hPa | 0 mm | - | 0 W/m² | - |
| 1778035196 | 11.11° C | 99% | 1007.9 hPa | 0.51 mm | - | 0 W/m² | - |
| 1778034893 | 11.11° C | 99% | 1008.2 hPa | 0.51 mm | - | 0 W/m² | - |
| 1778034590 | 11.67° C | 99% | 1007.7 hPa | 0 mm | - | 0 W/m² | - |
| 1778034288 | 11.67° C | 99% | 1007.8 hPa | 0 mm | - | 0 W/m² | - |
| 1778033985 | 12.22° C | 99% | 1007.8 hPa | 0 mm | - | 0 W/m² | - |
| 1778033683 | 12.78° C | 99% | 1007.7 hPa | 0 mm | - | 0 W/m² | - |
| 1778033380 | 12.78° C | 99% | 1007.6 hPa | 0.51 mm | - | 0 W/m² | - |
| 1778033077 | 12.78° C | 99% | 1007.5 hPa | 1.27 mm | - | 0 W/m² | - |
| 1778032472 | 12.78° C | 99% | 1007.5 hPa | 0 mm | - | 0 W/m² | - |
| 1778032169 | 12.78° C | 99% | 1007.1 hPa | 1.27 mm | - | 0 W/m² | - |
| 1778031866 | 13.33° C | 99% | 1007.2 hPa | 4.32 mm | - | 0 W/m² | - |
| 1778031562 | 13.33° C | 99% | 1006.9 hPa | 3.56 mm | - | 0 W/m² | - |
| 1778031260 | 13.33° C | 99% | 1006.9 hPa | 0.51 mm | - | 0 W/m² | - |
| 1778030956 | 15° C | 99% | 1006.8 hPa | 0 mm | - | 0 W/m² | - |
| 1778030653 | 15° C | 99% | 1006.1 hPa | 0 mm | - | 0 W/m² | - |
| 1778030350 | 18.89° C | 99% | 1005.9 hPa | 0 mm | - | 0 W/m² | - |
| 1778030047 | 18.89° C | 99% | 1005.5 hPa | 0 mm | - | 0 W/m² | - |
| 1778029744 | 18.89° C | 99% | 1005.3 hPa | 0 mm | - | 0 W/m² | - |
| 1778028836 | 18.89° C | 99% | 1005.2 hPa | 0.51 mm | - | 0 W/m² | - |
| 1778028531 | 18.89° C | 99% | 1005.6 hPa | 0 mm | - | 1 W/m² | - |
| 1778028230 | 18.89° C | 99% | 1005.5 hPa | 0.51 mm | - | 1 W/m² | - |
| 1778027318 | 18.89° C | 99% | 1005.3 hPa | 0 mm | - | 4 W/m² | - |
| 1778027015 | 18.89° C | 99% | 1005.3 hPa | 0 mm | - | 5 W/m² | - |
* Rain latest hour (hover to see other rain measurements)
** Current wind speed in m/s (hover to see current wind gust speed)